Change the Weather History Date:

Thursday, August 23, 2012

  Actual Average Record
Temperature  
Mean Temperature 81 °F -  
Max Temperature 91 °F 85 °F 103 °F (1971)
Min Temperature 71 °F 60 °F 44 °F (1966)
Cooling Degree Days 16    
Growing Degree Days 31 (Base 50)    
Moisture  
Dew Point 61 °F    
Average Humidity 51    
Maximum Humidity 78    
Minimum Humidity 36    
Precipitation  
Precipitation 0.00 in - - ()
Sea Level Pressure  
Sea Level Pressure 29.81 in    
Wind  
Wind Speed 14 mph (South)    
Max Wind Speed 23 mph    
Max Gust Speed 29 mph    
Visibility 10 miles    
Events      
Averages and records for this station are not official NWS values.
T = Trace of Precipitation, MM = Missing Value Source: NWS Daily Summary

Daily Weather History Graph

Daily Weather History Graph

Search for Another Location

Airport or City:

Trip Planner

Search our weather history database for the weather conditions in past years. The results will help you decide how hot, cold, wet, or windy it might be!

Date:

Astronomy

Aug. 23, 2012 Rise Set
Actual Time 6:44 AM CDT 8:18 PM CDT
Civil Twilight 6:15 AM CDT 8:48 PM CDT
Nautical Twilight 5:38 AM CDT 9:24 PM CDT
Astronomical Twilight 5:00 AM CDT 10:02 PM CDT
Moon 1:45 PM CDT (8/23) 11:35 PM CDT (8/23)
Length of Visible Light 14h 33m
Length of Day
13h 33m
Waxing Crescent, 40% of the Moon is Illuminated
Aug 23
Waxing Crescent
Aug 24
First Quarter
Aug 31
Full
Sep 8
Last Quarter
Sep 15
New

Hourly Weather History & Observations

Time (CDT) Temp. Heat Index Dew Point Humidity Pressure Visibility Wind Dir Wind Speed Gust Speed Precip Events Conditions
12:15 AM 78.8 °F - 51.8 °F 39% 29.82 in 10.0 mi South 12.7 mph 18.4 mph N/A   Clear
12:35 AM 78.8 °F - 51.8 °F 39% 29.82 in 10.0 mi South 11.5 mph 17.3 mph N/A   Clear
12:55 AM 78.8 °F - 51.8 °F 39% 29.82 in 10.0 mi South 13.8 mph - N/A   Clear
1:15 AM 78.8 °F - 50.0 °F 36% 29.81 in 10.0 mi South 16.1 mph - N/A   Clear
1:35 AM 78.8 °F - 51.8 °F 39% 29.81 in 10.0 mi South 13.8 mph 18.4 mph N/A   Clear
1:55 AM 78.8 °F - 51.8 °F 39% 29.81 in 10.0 mi South 13.8 mph 19.6 mph N/A   Clear
2:15 AM 78.8 °F - 51.8 °F 39% 29.81 in 10.0 mi South 17.3 mph 24.2 mph N/A   Clear
2:35 AM 78.8 °F - 51.8 °F 39% 29.81 in 10.0 mi South 15.0 mph 21.9 mph N/A   Clear
2:55 AM 78.8 °F - 51.8 °F 39% 29.81 in 10.0 mi South 15.0 mph 23.0 mph N/A   Clear
3:15 AM 78.8 °F - 53.6 °F 42% 29.81 in 10.0 mi South 18.4 mph 26.5 mph N/A   Clear
3:35 AM 78.8 °F - 53.6 °F 42% 29.82 in 10.0 mi SSW 16.1 mph 19.6 mph N/A   Clear
3:55 AM 78.8 °F - 55.4 °F 44% 29.83 in 10.0 mi SSW 17.3 mph - N/A   Clear
4:15 AM 77.0 °F - 55.4 °F 47% 29.81 in 10.0 mi South 13.8 mph 19.6 mph N/A   Clear
4:35 AM 77.0 °F - 55.4 °F 47% 29.81 in 10.0 mi South 9.2 mph 17.3 mph N/A   Clear
4:55 AM 75.2 °F - 55.4 °F 50% 29.81 in 10.0 mi SSE 9.2 mph - N/A   Clear
5:15 AM 75.2 °F - 55.4 °F 50% 29.82 in 10.0 mi South 9.2 mph - N/A   Clear
5:35 AM 73.4 °F - 55.4 °F 53% 29.83 in 10.0 mi SSE 8.1 mph - N/A   Clear
5:55 AM 73.4 °F - 57.2 °F 57% 29.82 in 10.0 mi South 10.4 mph - N/A   Clear
6:15 AM 73.4 °F - 57.2 °F 57% 29.83 in 10.0 mi SE 6.9 mph - N/A   Clear
6:35 AM 71.6 °F - 57.2 °F 60% 29.83 in 10.0 mi SSE 6.9 mph - N/A   Clear
6:55 AM 71.6 °F - 57.2 °F 60% 29.83 in 10.0 mi SSE 5.8 mph - N/A   Clear
7:15 AM 71.6 °F - 57.2 °F 60% 29.83 in 10.0 mi SSE 9.2 mph - N/A   Clear
7:35 AM 73.4 °F - 60.8 °F 65% 29.83 in 10.0 mi SSE 10.4 mph - N/A   Clear
7:55 AM 73.4 °F - 60.8 °F 65% 29.83 in 10.0 mi South 11.5 mph 16.1 mph N/A   Clear
8:15 AM 75.2 °F - 60.8 °F 61% 29.82 in 10.0 mi South 13.8 mph 18.4 mph N/A   Clear
8:35 AM 75.2 °F - 60.8 °F 61% 29.82 in 10.0 mi South 17.3 mph 21.9 mph N/A   Clear
8:55 AM 77.0 °F - 60.8 °F 57% 29.83 in 10.0 mi South 11.5 mph - N/A   Clear
9:15 AM 77.0 °F - 60.8 °F 57% 29.83 in 10.0 mi South 13.8 mph 19.6 mph N/A   Clear
9:35 AM 78.8 °F - 62.6 °F 57% 29.83 in 10.0 mi SSW 13.8 mph - N/A   Clear
9:55 AM 78.8 °F - 62.6 °F 57% 29.82 in 10.0 mi South 17.3 mph - N/A   Clear
10:15 AM 80.6 °F 81.8 °F 62.6 °F 54% 29.82 in 10.0 mi South 16.1 mph 19.6 mph N/A   Clear
10:35 AM 80.6 °F 81.8 °F 62.6 °F 54% 29.83 in 10.0 mi South 15.0 mph 19.6 mph N/A   Clear
10:55 AM 82.4 °F 83.4 °F 62.6 °F 51% 29.82 in 10.0 mi South 16.1 mph 19.6 mph N/A   Clear
11:15 AM 84.2 °F 85.0 °F 62.6 °F 48% 29.82 in 10.0 mi SSW 13.8 mph 23.0 mph N/A   Clear
11:35 AM 84.2 °F 85.6 °F 64.4 °F 51% 29.82 in 10.0 mi SSW 17.3 mph 23.0 mph N/A   Clear
11:55 AM 84.2 °F 85.6 °F 64.4 °F 51% 29.82 in 10.0 mi SSW 15.0 mph 21.9 mph N/A   Clear
12:15 PM 86.0 °F 87.3 °F 64.4 °F 48% 29.82 in 10.0 mi South 15.0 mph 19.6 mph N/A   Clear
12:35 PM 87.8 °F 89.4 °F 64.4 °F 46% 29.82 in 10.0 mi SSW 16.1 mph 19.6 mph N/A   Clear
12:55 PM 87.8 °F 89.4 °F 64.4 °F 46% 29.81 in 10.0 mi SSW 17.3 mph - N/A   Clear
1:15 PM 89.6 °F 90.1 °F 62.6 °F 40% 29.80 in 10.0 mi South 17.3 mph - N/A   Clear
1:35 PM 89.6 °F 91.1 °F 64.4 °F 43% 29.80 in 10.0 mi SSW 16.1 mph 20.7 mph N/A   Clear
1:55 PM 91.4 °F 93.2 °F 64.4 °F 41% 29.80 in 10.0 mi South 15.0 mph 25.3 mph N/A   Clear
2:15 PM 89.6 °F 92.2 °F 66.2 °F 46% 29.80 in 10.0 mi South 16.1 mph 26.5 mph N/A   Clear
2:35 PM 89.6 °F 91.1 °F 64.4 °F 43% 29.80 in 10.0 mi South 18.4 mph 25.3 mph N/A   Clear
2:55 PM 89.6 °F 92.2 °F 66.2 °F 46% 29.80 in 10.0 mi South 17.3 mph 24.2 mph N/A   Clear
3:15 PM 89.6 °F 92.2 °F 66.2 °F 46% 29.80 in 10.0 mi South 20.7 mph - N/A   Clear
3:35 PM 91.4 °F 94.0 °F 66.2 °F 43% 29.80 in 10.0 mi SSW 19.6 mph 27.6 mph N/A   Clear
3:55 PM 89.6 °F 92.2 °F 66.2 °F 46% 29.80 in 10.0 mi South 16.1 mph 20.7 mph N/A   Clear
4:15 PM 89.6 °F 92.2 °F 66.2 °F 46% 29.80 in 10.0 mi South 15.0 mph 21.9 mph N/A   Clear
4:35 PM 89.6 °F 92.2 °F 66.2 °F 46% 29.79 in 10.0 mi South 19.6 mph 26.5 mph N/A   Clear
4:55 PM 91.4 °F 94.0 °F 66.2 °F 43% 29.79 in 10.0 mi South 19.6 mph 26.5 mph N/A   Clear
5:15 PM 89.6 °F 92.2 °F 66.2 °F 46% 29.80 in 10.0 mi SSW 20.7 mph 26.5 mph N/A   Clear
5:35 PM 89.6 °F 92.2 °F 66.2 °F 46% 29.79 in 10.0 mi South 23.0 mph 28.8 mph N/A   Clear
5:55 PM 89.6 °F 92.2 °F 66.2 °F 46% 29.79 in 10.0 mi SSW 17.3 mph 25.3 mph N/A   Clear
6:15 PM 89.6 °F 92.2 °F 66.2 °F 46% 29.79 in 10.0 mi South 13.8 mph 21.9 mph N/A   Clear
6:35 PM 87.8 °F 90.4 °F 66.2 °F 49% 29.79 in 10.0 mi South 17.3 mph 26.5 mph N/A   Clear
6:55 PM 84.2 °F 86.6 °F 66.2 °F 55% 29.79 in 10.0 mi SSW 20.7 mph 27.6 mph N/A   Clear
7:15 PM 84.2 °F 86.6 °F 66.2 °F 55% 29.78 in 10.0 mi SSW 15.0 mph - N/A   Clear
7:35 PM 84.2 °F 86.6 °F 66.2 °F 55% 29.78 in 10.0 mi SSW 13.8 mph 24.2 mph N/A   Clear
7:55 PM 84.2 °F 86.6 °F 66.2 °F 55% 29.79 in 10.0 mi SSW 11.5 mph 23.0 mph N/A   Clear
8:15 PM 82.4 °F 84.6 °F 66.2 °F 58% 29.79 in 10.0 mi South 13.8 mph - N/A   Clear
8:55 PM 80.6 °F 82.7 °F 66.2 °F 61% 29.80 in 10.0 mi SSW 10.4 mph - N/A   Clear
9:15 PM 80.6 °F 82.7 °F 66.2 °F 61% 29.81 in 10.0 mi South 8.1 mph - N/A   Clear
9:35 PM 80.6 °F 82.7 °F 66.2 °F 61% 29.83 in 10.0 mi South 8.1 mph - N/A   Clear
9:55 PM - - - N/A% 29.82 in 10.0 mi South 6.9 mph - N/A   Unknown
10:15 PM 78.8 °F - 66.2 °F 65% 29.83 in 10.0 mi ESE 3.5 mph - N/A   Clear
10:35 PM 77.0 °F - 66.2 °F 69% 29.83 in 10.0 mi SE 3.5 mph - N/A   Clear
10:55 PM 77.0 °F - 66.2 °F 69% 29.83 in 10.0 mi South 5.8 mph - N/A   Clear
11:15 PM 75.2 °F - 66.2 °F 73% 29.84 in 10.0 mi SSE 6.9 mph - N/A   Clear
11:35 PM 73.4 °F - 66.2 °F 78% 29.83 in 10.0 mi SSE 6.9 mph - N/A   Clear
11:55 PM 73.4 °F - 66.2 °F 78% 29.83 in 10.0 mi SSE 6.9 mph - N/A   Clear